Regional Weather Roundup
Issued by NWS

Home | Current Version | Previous Version | Graphics & Text | Print | Product List | Glossary Off
Versions: 1 2 3 4 5 6 7 8 9 10 11 12 13 14 15 16 17 18 19 20 21 22 23 24 25 26 27 28 29 30 31 32 33 34 35 36 37 38 39 40 41 42 43 44 45 46 47 48 49 50

000
ASUS43 KTOP 050308
RWRKS

WEATHER ROUNDUP FOR KANSAS
NATIONAL WEATHER SERVICE GOODLAND KS
1000 PM CDT WED MAY 04 2016

NOTE:  "FAIR" INDICATES FEW OR NO CLOUDS BELOW 12,000 FEET WITH NO
SIGNIFICANT WEATHER AND/OR OBSTRUCTIONS TO VISIBILITY.

KSZ001>006-013>018-027>032-041>047-050400-
NORTHWEST KANSAS

CITY           SKY/WX    TMP DP  RH WIND       PRES   REMARKS
GOODLAND       CLEAR     55  44  66 S7        30.11R
HAYS           CLEAR     59  43  55 CALM      30.07R
HILL CITY      CLEAR     54  44  69 CALM      30.08R
RUSSELL        CLEAR     62  38  40 E5        30.05R
$$

KSZ061>065-074>080-084>089-050400-
SOUTHWEST KANSAS

CITY           SKY/WX    TMP DP  RH WIND       PRES   REMARKS
DODGE CITY     CLEAR     57  45  64 E5        30.09R
ELKHART          N/A     58  44  60 SE9         N/A
GARDEN CITY    CLEAR     58  46  64 E8        30.09R
GREAT BEND     CLEAR     55  45  67 CALM      30.07R
LIBERAL        CLEAR     66  43  42 E5        30.10S
PRATT          CLEAR     58  43  57 NE3       30.07S
$$

KSZ066>073-081>083-090>101-050400-
SOUTHEAST KANSAS

CITY           SKY/WX    TMP DP  RH WIND       PRES   REMARKS
CHANUTE        CLEAR     56  40  55 CALM      30.01R
COFFEYVILLE    CLEAR     59  41  51 N5        30.00R
HUTCHINSON     PTCLDY    54  40  59 CALM      30.05R
MEDICINE LODGE   N/A     59  45  59 N3        30.06R
NEWTON         CLEAR     55  36  47 N5        30.07R
PARSONS        CLEAR     52  45  77 CALM      30.01R
WICHITA INTL   CLEAR     59  37  44 NW5       30.04R
WICHITA JABRA  CLEAR     58  39  49 N8        30.04R
WICHITA MCCONL CLEAR     60  37  42 N7        30.04R
WINFIELD       CLEAR     56  42  59 N3        30.41F
$$

KSZ007>012-019>026-033>040-048>060-102>105-050400-
NORTHEAST KANSAS

CITY           SKY/WX    TMP DP  RH WIND       PRES   REMARKS
CONCORDIA      CLEAR     57  34  41 NW7       30.04R
EMPORIA        CLEAR     58  40  51 NW3       30.02R
LAWRENCE       CLEAR     49  43  80 N5        30.01R
MANHATTAN      CLEAR     53  40  61 CALM      30.02R
MARYSVILLE     CLEAR     54  41  62 CALM      30.02R
OLATHE IND     CLEAR     55  39  54 NW7       30.01R
OLATHE EXE     CLEAR     58  38  47 NW5       30.00R
SALINA         CLEAR     58  45  62 W3        30.05R
TOPEKA BILLARD CLEAR     57  42  57 CALM      30.01R
TOPEKA FORBES  CLEAR     57  41  55 N3        30.01R
$$



USA.gov is the U.S. government's official web portal to all federal, state and local government web resources and services.